Weather Roundup
Issued by NWS

Home | Current Version | Previous Version | Text Only | Print | Product List | Glossary On
Versions: 1 2 3 4 5 6 7 8 9 10 11 12 13 14 15 16 17 18 19 20 21 22 23 24 25 26 27 28 29 30 31 32 33 34 35 36 37 38 39 40 41 42 43 44 45 46 47 48 49 50
000
NZUS93 KARX 271410
HRRWXR

CURRENT HOURLY OBSERVATIONS ACROSS
MUCH OF THE UPPER MISSISSIPPI VALLEY
NATIONAL WEATHER SERVICE LA CROSSE WI
900 AM CDT MON MAR 27 2017


...SOUTHEAST MINNESOTA...


CITY           SKY/WX    TMP DP  RH WIND       PRES   REMARKS
ROCHESTER      CLOUDY    37  37 100 N6        29.93F FOG     WCI  32
ROCHESTER/MAYO CLOUDY    38  38 100 NW5       29.94S WCI  34
WINONA         CLOUDY    39  37  93 CALM      29.95S
AUSTIN         CLOUDY    37  37 100 N6        29.94R FOG     WCI  33
ALBERT LEA     CLOUDY    37  37 100 N6        29.94R FOG     WCI  33
DODGE CENTER   FOG       37  36  93 N8        29.94R VSB<1/4 WCI  31
PRESTON        CLOUDY    38  37  97 N6        29.93S WCI  33
OWATONNA       CLOUDY    37  36  93 N6        29.94S FOG     WCI  33
FARIBAULT      CLOUDY    37  37 100 N7        29.96S WCI  32
$$

...ELSEWHERE IN MINNESOTA...


CITY           SKY/WX    TMP DP  RH WIND       PRES   REMARKS
MINNEAPOLIS    PTSUNNY   40  34  79 N7        29.97S
INTNL FALLS    CLOUDY    34  30  85 CALM      29.98R
DULUTH         CLOUDY    36  33  89 N8        29.94R WCI  30
RED WING       CLOUDY    39  36  87 CALM      29.95S
REDWOOD FALLS  CLOUDY    41  36  82 CALM      29.96F
MANKATO        CLOUDY    39  36  89 N9        29.97S WCI  33
WORTHINGTON    CLOUDY    38  36  92 NW3       29.97R
FAIRMONT       CLOUDY    39  37  92 N7        29.96S WCI  34
$$

...SOUTHWEST WISCONSIN...


CITY           SKY/WX    TMP DP  RH WIND       PRES   REMARKS
LA CROSSE      FOG       42  41  96 NW3       29.94S VSB 1
PRAIRIE DU CHI CLOUDY    42  40  95 NW3       29.94S FOG
BOSCOBEL       CLOUDY    44  41  89 CALM      29.94S
LONE ROCK      CLOUDY    44  40  85 N5        29.93F FOG
PLATTEVILLE    CLOUDY    42  42 100 N6        29.93F
FORT MC COY    CLOUDY    39  39 100 CALM      29.95S FOG
CAMP DOUGLAS   CLOUDY    41  41 100 NW3       29.93S FOG
MAUSTON-NEW LI CLOUDY    41  40  97 NW3       29.93F FOG
VIROQUA        CLOUDY    40  40 100 CALM      29.92F
WIS DELLS      CLOUDY    40  39  97 CALM      29.93F FOG
$$

...ELSEWHERE IN WISCONSIN...


CITY           SKY/WX    TMP DP  RH WIND       PRES   REMARKS
MILWAUKEE      CLOUDY    44  40  85 W3        29.94S
MADISON        CLOUDY    42  39  89 NW6       29.94S
GREEN BAY      CLOUDY    40  39  97 NE7       29.93S
EAU CLAIRE     CLOUDY    38  35  89 N5        29.94S WCI  34
BLACK RVR FLS  CLOUDY    40  40 100 CALM      29.93F
MEDFORD        CLOUDY    33  32  94 N3        29.91F
WAUSAU         CLOUDY    36  33  89 N3        29.91S
WIS RAPIDS     CLOUDY    40  38  93 NE3       29.94S
MARSHFIELD     CLOUDY    37  34  89 NE6       29.91S WCI  32
RICE LAKE      DRIZZLE   36  35  96 CALM      29.98R
$$

...NORTHEAST IOWA...


CITY           SKY/WX    TMP DP  RH WIND       PRES   REMARKS
WATERLOO       CLOUDY    42  40  92 N7        29.93S
DUBUQUE        CLOUDY    42  40  92 NE8       29.92F
DECORAH        CLOUDY    39  39 100 N7        29.92F FOG     WCI  34
MASON CITY     CLOUDY    40  38  93 N7        29.95S
CHARLES CITY   CLOUDY    41  41 100 N8        29.94F FOG
OELWEIN        CLOUDY    41  41 100 N8        29.93S
$$

...ELSEWHERE IN IOWA...


CITY           SKY/WX    TMP DP  RH WIND       PRES   REMARKS
DES MOINES     CLOUDY    44  40  85 NE5       29.93S
IOWA CITY      CLOUDY    48  44  86 N5        29.94S
FORT DODGE     CLOUDY    41  37  87 N7        29.95S
MARSHALLTOWN   CLOUDY    43  42  97 N7        29.93R FOG
CEDAR RAPIDS   CLOUDY    44  44 100 N5        29.91F
$$

...NORTHERN ILLINOIS...


CITY           SKY/WX    TMP DP  RH WIND       PRES   REMARKS
CHICAGO-OHARE  DRIZZLE   48  45  89 NE7       29.93R
CHICAGO-MIDWAY CLOUDY    50  48  93 CALM      29.93S
MOLINE         CLOUDY    49  45  86 NE6       29.92S FOG
ROCKFORD       CLOUDY    47  42  83 N3        29.96R
PEORIA         LGT RAIN  49  47  93 NE3       29.92F
$$

NOTE: "FAIR" INDICATES FEW OR NO CLOUDS BELOW 12,000 FEET WITH NO
SIGNIFICANT WEATHER AND/OR OBSTRUCTIONS TO VISIBILITY. WIND
SPEEDS ARE IN MILES-PER-HOUR.




USA.gov is the U.S. government's official web portal to all federal, state and local government web resources and services.